Camp Pendleton, CA

1:15 PM PST on December 09, 2016 (GMT -0800)
Camp Pendleton Marine Corps Air Station

Weather History for KNFG - November, 2013

Change the Weather History Date:

Monday, November 18, 2013

  Actual Average Record
Temperature  
Mean Temperature 54 °F -  
Max Temperature 68 °F 68 °F 90 °F (2005)
Min Temperature 39 °F 41 °F 30 °F (2000)
Degree Days  
Heating Degree Days 12    
Growing Degree Days 4 (Base 50)    
Moisture  
Dew Point 46 °F    
Average Humidity 71    
Maximum Humidity 89    
Minimum Humidity 54    
Precipitation  
Precipitation 0.00 in - - ()
Sea Level Pressure  
Sea Level Pressure 30.09 in    
Wind  
Wind Speed 2 mph (SW)    
Max Wind Speed 12 mph    
Max Gust Speed 18 mph    
Visibility 10 miles    
Events      
Averages and records for this station are not official NWS values.
T = Trace of Precipitation, MM = Missing Value Source: NWS Daily Summary

Daily Weather History Graph

Daily Weather History Graph

Search for Another Location

Airport or City:

Trip Planner

Search our weather history database for the weather conditions in past years. The results will help you decide how hot, cold, wet, or windy it might be!

Date:

Astronomy

Nov. 18, 2013 Rise Set
Actual Time 6:23 AM PST 4:45 PM PST
Civil Twilight 5:57 AM PST 5:11 PM PST
Nautical Twilight 5:27 AM PST 5:42 PM PST
Astronomical Twilight 4:57 AM PST 6:11 PM PST
Moon 5:52 PM PST (11/18) 7:15 AM PST (11/18)
Length of Visible Light 11h 14m
Length of Day
10h 21m
Full, 99% of the Moon is Illuminated
Nov 18
Full
Nov 25
Last Quarter
Dec 2
New
Dec 9
First Quarter
Dec 17
Full

Hourly Weather History & Observations

Time (PST) Temp. Windchill Dew Point Humidity Pressure Visibility Wind Dir Wind Speed Gust Speed Precip Events Conditions
12:54 AM 44.1 °F - 39.9 °F 85% 30.09 in 10.0 mi Calm Calm - N/A   Clear
1:54 AM 43.0 °F - 39.9 °F 89% 30.09 in 10.0 mi Calm Calm - N/A   Clear
2:54 AM 41.0 °F - 37.0 °F 86% 30.09 in 10.0 mi Calm Calm - N/A   Clear
3:54 AM 42.1 °F - 37.0 °F 82% 30.09 in 10.0 mi Calm Calm - N/A   Clear
4:54 AM 43.0 °F 41.3 °F 39.0 °F 86% 30.10 in 10.0 mi NE 3.5 mph - N/A   Clear
5:54 AM 39.0 °F - 36.0 °F 89% 30.12 in 8.0 mi Calm Calm - N/A   Clear
6:54 AM 43.0 °F - 39.0 °F 86% 30.14 in 10.0 mi Calm Calm - N/A   Scattered Clouds
7:54 AM 48.9 °F - 44.1 °F 83% 30.16 in 10.0 mi Calm Calm - N/A   Scattered Clouds
8:54 AM 57.9 °F - 46.9 °F 67% 30.16 in 10.0 mi Calm Calm - N/A   Scattered Clouds
9:54 AM 64.0 °F - 48.9 °F 58% 30.15 in 10.0 mi Calm Calm - N/A   Scattered Clouds
10:54 AM 66.9 °F - 50.0 °F 54% 30.12 in 10.0 mi Calm Calm - N/A   Scattered Clouds
11:54 AM 66.9 °F - 52.0 °F 59% 30.09 in 10.0 mi SW 8.1 mph - N/A   Scattered Clouds
12:54 PM 68.0 °F - 52.0 °F 56% 30.07 in 10.0 mi WSW 9.2 mph - N/A   Scattered Clouds
1:54 PM 68.0 °F - 51.1 °F 55% 30.05 in 10.0 mi West 11.5 mph 18.4 mph N/A   Scattered Clouds
2:54 PM 66.9 °F - 50.0 °F 54% 30.04 in 10.0 mi WSW 10.4 mph - N/A   Scattered Clouds
3:54 PM 64.9 °F - 48.9 °F 56% 30.05 in 10.0 mi Variable 6.9 mph - N/A   Scattered Clouds
4:54 PM 62.1 °F - 48.9 °F 62% 30.05 in 10.0 mi Calm Calm - N/A   Scattered Clouds
5:54 PM 61.0 °F - 48.0 °F 62% 30.06 in 10.0 mi South 3.5 mph - N/A   Scattered Clouds
6:54 PM 60.1 °F - 50.0 °F 69% 30.09 in 10.0 mi South 3.5 mph - N/A   Scattered Clouds
7:54 PM 55.9 °F - 48.9 °F 77% 30.09 in 10.0 mi Calm Calm - N/A   Mostly Cloudy
8:54 PM 59.0 °F - 48.9 °F 69% 30.09 in 10.0 mi Calm Calm - N/A   Overcast
9:54 PM 60.1 °F - 50.0 °F 69% 30.09 in 10.0 mi Calm Calm - N/A   Overcast
10:54 PM 59.0 °F - 48.9 °F 69% 30.10 in 10.0 mi Calm Calm - N/A   Overcast
11:54 PM 57.9 °F - 48.9 °F 72% 30.09 in 10.0 mi Calm Calm - N/A   Overcast